Weather reports worldwide

Advertisment
Redesdale Camp, United Kingdom (3230): temperature & dewpoint: 17.09.2017 06:00:00 - 23.09.2017 06:00:00 (BST)Redesdale Camp, United Kingdom (3230): temperature -20cm & temperature -100cm: 17.09.2017 06:00:00 - 23.09.2017 06:00:00 (BST)Redesdale Camp, United Kingdom (3230): wind speed: 17.09.2017 06:00:00 - 23.09.2017 06:00:00 (BST)Redesdale Camp, United Kingdom (3230): wind direction: 17.09.2017 06:00:00 - 23.09.2017 06:00:00 (BST)Redesdale Camp, United Kingdom (3230): reduced air pressure: 17.09.2017 06:00:00 - 23.09.2017 06:00:00 (BST)Redesdale Camp, United Kingdom (3230): visibility: 17.09.2017 06:00:00 - 23.09.2017 06:00:00 (BST)Redesdale Camp, United Kingdom (3230): precipitation: 17.09.2017 06:00:00 - 23.09.2017 06:00:00 (BST)
Date & Time tt [°C] td [°C] tt -20cm [°C] tt -100cm [°C] ff [km/h] ff [kn] dd ppp [hPa] vv [km] rr [mm]
23.09.2017 06:00:00 8,1 7,8 - - 0 0 N 1018,0 3,2 0,0
23.09.2017 05:00:00 8,1 7,8 - - 0 0 N 1017,8 7 0,0
23.09.2017 04:00:00 7,6 7,2 - - 2 1 NNE 1017,7 5 0,0
23.09.2017 03:00:00 6,9 6,0 - - 4 2 NE 1017,7 0,1 0,0
23.09.2017 02:00:00 9,7 8,8 - - 9 5 SE 1017,4 10 0,0
23.09.2017 01:00:00 11,0 10,2 - - 5 3 NNE 1017,6 20 0,0
23.09.2017 00:00:00 11,0 10,0 - - 8 4 SE 1017,6 18 0,0
22.09.2017 23:00:00 10,9 9,8 - - 9 5 E 1017,5 21 0,0
22.09.2017 22:00:00 10,6 9,4 - - 9 5 SE 1017,5 35 0,0
22.09.2017 21:00:00 10,4 9,1 - - 9 5 SE 1017,1 45 0,0
22.09.2017 20:00:00 11,3 9,6 - - 15 8 SE 1016,6 50 0,0
22.09.2017 19:00:00 11,8 9,5 - - 18 10 SSE 1016,2 27 0,0
22.09.2017 18:00:00 11,8 9,8 - - 11 6 SE 1016,1 40 0,0
22.09.2017 17:00:00 11,6 9,7 - - 18 10 SE 1016,0 23 0,0
22.09.2017 16:00:00 12,1 10,0 - - 18 10 SE 1016,3 50 0,0
22.09.2017 15:00:00 12,1 9,7 - - 15 8 SSE 1016,7 45 0,2
22.09.2017 14:00:00 10,8 8,6 - - 11 6 S 1016,9 10 0,4
22.09.2017 13:00:00 14,0 7,0 - - 21 11 S 1016,3 50 0,0
22.09.2017 12:00:00 13,3 6,8 - - 18 10 S 1016,6 45 0,0
22.09.2017 11:00:00 13,0 8,8 - - 15 8 SSE 1017,0 40 0,0
22.09.2017 10:00:00 11,5 9,5 13,2 13,0 11 6 ESE 1017,4 50 0,0
22.09.2017 09:00:00 6,3 6,1 - - 4 2 W 1018,0 45 0,0
22.09.2017 08:00:00 3,1 2,9 - - 4 2 NNE 1018,0 24 0,0
22.09.2017 07:00:00 1,2 1,0 - - 0 0 N 1018,4 20 0,0
22.09.2017 06:00:00 1,7 1,3 - - 5 3 N 1018,2 18 0,2
22.09.2017 05:00:00 1,7 1,2 - - 4 2 NE 1018,3 19 0,0
22.09.2017 04:00:00 4,4 4,1 - - 8 4 N 1017,7 30 0,0
22.09.2017 03:00:00 4,7 4,2 - - 5 3 NNW 1017,6 29 0,0
22.09.2017 02:00:00 6,3 5,6 - - 4 2 SSW 1017,2 40 0,0
22.09.2017 01:00:00 6,6 5,6 - - 5 3 N 1017,1 45 0,0
22.09.2017 00:00:00 5,8 4,7 - - 5 3 NNW 1016,6 45 0,0
21.09.2017 23:00:00 7,3 6,2 - - 5 3 W 1015,9 45 0,0
21.09.2017 22:00:00 7,6 6,5 - - 8 4 NW 1015,4 50 0,0
21.09.2017 21:00:00 8,1 6,7 - - 2 1 WNW 1014,8 45 0,0
21.09.2017 20:00:00 9,5 7,3 - - 4 2 NW 1013,7 50 0,0
21.09.2017 19:00:00 11,8 9,0 - - 4 2 WSW 1012,7 50 0,0
21.09.2017 18:00:00 11,7 9,1 - - 9 5 SW 1012,1 50 0,0
21.09.2017 17:00:00 12,6 9,0 - - 8 4 WSW 1011,6 50 0,0
21.09.2017 16:00:00 13,0 9,0 - - 9 5 W 1011,0 45 0,0
21.09.2017 15:00:00 14,6 9,6 - - 11 6 WSW 1010,3 50 0,0
21.09.2017 14:00:00 12,5 10,8 - - 16 9 SW 1009,7 40 0,0
21.09.2017 13:00:00 14,0 12,0 - - 15 8 SW 1008,8 50 0,0
21.09.2017 12:00:00 13,9 12,7 - - 11 6 SW 1008,1 50 0,2
21.09.2017 11:00:00 14,7 13,9 - - 15 8 S 1007,3 11 0,8
21.09.2017 10:00:00 14,8 13,4 13,2 13,0 16 9 SSE 1007,4 30 0,0
21.09.2017 09:00:00 14,4 13,0 - - 16 9 SE 1007,2 50 0,0
21.09.2017 08:00:00 14,1 12,8 - - 16 9 SSE 1007,2 50 0,0
21.09.2017 07:00:00 14,3 12,8 - - 15 8 SSE 1007,2 50 0,0
21.09.2017 06:00:00 14,1 13,0 - - 11 6 SSE 1007,4 50 0,2
21.09.2017 05:00:00 14,4 12,9 - - 11 6 S 1007,9 50 0,0
21.09.2017 04:00:00 14,4 13,0 - - 16 9 S 1008,2 50 0,0
21.09.2017 03:00:00 14,5 13,3 - - 11 6 SSW 1008,5 45 0,0
21.09.2017 02:00:00 14,6 13,4 - - 9 5 S 1008,9 45 0,0
21.09.2017 01:00:00 14,4 13,2 - - 11 6 SSE 1008,9 45 0,0
21.09.2017 00:00:00 14,5 13,3 - - 11 6 S 1009,0 45 0,0
20.09.2017 23:00:00 14,4 13,3 - - 11 6 S 1009,1 45 0,0
20.09.2017 22:00:00 14,4 13,4 - - 18 10 S 1009,3 50 0,0
20.09.2017 21:00:00 13,7 13,2 - - 13 7 S 1009,5 30 0,2
20.09.2017 20:00:00 13,8 12,9 - - 9 5 SSE 1009,9 3,9 0,2
20.09.2017 19:00:00 14,1 12,6 - - 9 5 SE 1010,0 11 0,6
20.09.2017 18:00:00 15,5 12,3 - - 9 5 SSE 1010,4 50 0,0
20.09.2017 17:00:00 15,3 12,2 - - 13 7 S 1010,8 45 0,0
20.09.2017 16:00:00 15,8 12,5 - - 11 6 SSW 1011,2 45 0,0
20.09.2017 15:00:00 15,6 12,3 - - 11 6 SSW 1011,8 45 0,0
20.09.2017 14:00:00 15,3 12,0 - - 18 10 SSW 1011,8 40 0,0
20.09.2017 13:00:00 14,4 12,0 - - 9 5 SSW 1012,5 45 0,0
20.09.2017 12:00:00 14,2 12,1 - - 15 8 SSW 1012,9 45 0,0
20.09.2017 11:00:00 14,0 12,2 - - 13 7 SW 1013,4 35 0,0
20.09.2017 10:00:00 13,5 12,1 12,9 13,2 9 5 SSW 1013,7 45 0,0
20.09.2017 09:00:00 12,7 11,7 - - 9 5 S 1013,9 40 0,0
20.09.2017 08:00:00 12,7 11,5 - - 5 3 E 1014,0 45 0,0
20.09.2017 07:00:00 11,9 11,1 - - 4 2 SE 1014,4 35 0,0
20.09.2017 06:00:00 11,6 10,8 - - 8 4 SE 1014,7 35 0,0
20.09.2017 05:00:00 10,9 10,0 - - 5 3 S 1015,2 35 0,0
20.09.2017 04:00:00 10,8 9,9 - - 5 3 S 1015,8 27 0,0
20.09.2017 03:00:00 10,6 9,9 - - 0 0 N 1016,2 35 0,0
20.09.2017 02:00:00 10,5 9,9 - - 4 2 NW 1016,6 30 0,0
20.09.2017 01:00:00 10,5 10,1 - - 5 3 NW 1016,8 35 0,0
20.09.2017 00:00:00 8,8 8,6 - - 2 1 N 1017,3 30 0,0
19.09.2017 23:00:00 6,8 6,3 - - 4 2 NW 1018,0 22 0,0
19.09.2017 22:00:00 5,8 5,0 - - 2 1 WNW 1018,6 30 0,0
19.09.2017 21:00:00 6,4 5,2 - - 4 2 WNW 1019,0 35 0,0
19.09.2017 20:00:00 8,4 6,6 - - 4 2 WNW 1018,9 50 0,0
19.09.2017 19:00:00 10,8 7,7 - - 8 4 SW 1018,4 50 0,0
19.09.2017 18:00:00 12,5 7,9 - - 9 5 SW 1018,3 50 0,0
19.09.2017 17:00:00 14,3 7,2 - - 9 5 WSW 1018,3 50 0,0
19.09.2017 16:00:00 14,2 6,8 - - 11 6 WSW 1018,8 50 0,0
19.09.2017 15:00:00 15,2 7,9 - - 9 5 W 1019,1 50 0,0
19.09.2017 14:00:00 13,1 7,1 - - 13 7 SW 1019,4 50 0,0
19.09.2017 13:00:00 14,4 8,1 - - 11 6 SW 1019,3 45 0,0
19.09.2017 12:00:00 14,0 9,0 - - 11 6 SW 1019,5 50 0,0
19.09.2017 11:00:00 12,1 9,2 - - 11 6 WSW 1019,7 50 0,0
19.09.2017 10:00:00 9,6 9,4 12,9 13,4 2 1 W 1020,2 40 0,0
19.09.2017 09:00:00 3,7 3,6 - - 2 1 SE 1021,0 23 0,0
19.09.2017 08:00:00 0,5 0,3 - - 2 1 SW 1021,1 0,4 0,0
19.09.2017 07:00:00 -0,2 -0,5 - - 2 1 ESE 1021,4 0,1 0,0
19.09.2017 06:00:00 0,3 0,0 - - 0 0 N 1021,1 0,1 0,0
19.09.2017 05:00:00 0,8 0,4 - - 4 2 N 1021,0 4,1 0,0
19.09.2017 04:00:00 0,9 0,6 - - 2 1 WNW 1021,4 0,4 0,0
19.09.2017 03:00:00 1,5 1,1 - - 5 3 N 1021,4 5 0,2
19.09.2017 02:00:00 2,9 2,6 - - 0 0 N 1021,5 28 0,0
19.09.2017 01:00:00 2,3 1,8 - - 4 2 WNW 1021,3 18 0,0
19.09.2017 00:00:00 4,4 4,1 - - 8 4 WNW 1021,0 13 0,0
18.09.2017 23:00:00 3,6 3,0 - - 5 3 NNW 1020,9 35 0,0
18.09.2017 22:00:00 5,0 4,6 - - 9 5 N 1020,5 50 0,0
18.09.2017 21:00:00 4,0 3,3 - - 9 5 N 1020,6 35 0,0
18.09.2017 20:00:00 7,4 6,5 - - 2 1 NNW 1020,2 30 0,0
18.09.2017 19:00:00 9,0 8,1 - - 4 2 WNW 1019,4 50 0,0
18.09.2017 18:00:00 9,4 8,3 - - 4 2 SW 1019,3 45 0,2
18.09.2017 17:00:00 9,7 8,3 - - 4 2 WNW 1019,3 16 1,0
18.09.2017 16:00:00 9,9 7,2 - - 5 3 NNW 1019,3 17 0,0
18.09.2017 15:00:00 10,5 7,2 - - 9 5 NNW 1019,2 50 0,0
18.09.2017 14:00:00 10,5 7,0 - - 16 9 N 1019,1 50 0,0
18.09.2017 13:00:00 11,2 6,6 - - 15 8 N 1019,0 50 0,0
18.09.2017 12:00:00 11,3 7,5 - - 11 6 NNW 1018,9 50 0,0
18.09.2017 11:00:00 10,4 7,0 - - 8 4 NW 1019,0 50 0,0
18.09.2017 10:00:00 9,9 7,1 13,2 13,4 13 7 NNW 1019,3 50 0,0
18.09.2017 09:00:00 9,3 7,5 - - 13 7 NNW 1019,2 50 0,0
18.09.2017 08:00:00 7,2 6,7 - - 4 2 N 1019,2 35 0,0
18.09.2017 07:00:00 6,7 5,9 - - 2 1 NE 1019,3 35 0,0
18.09.2017 06:00:00 8,4 7,6 - - 5 3 NNW 1019,1 40 0,0
18.09.2017 05:00:00 8,4 7,9 - - 2 1 NW 1019,1 35 0,0
18.09.2017 04:00:00 7,5 7,1 - - 2 1 N 1019,2 29 0,0
18.09.2017 03:00:00 6,8 6,3 - - 4 2 NNW 1019,4 5 0,0
18.09.2017 02:00:00 6,4 5,6 - - 4 2 NW 1019,7 8 0,0
18.09.2017 01:00:00 8,4 7,5 - - 8 4 NNW 1019,5 3,9 0,0
18.09.2017 00:00:00 9,1 8,1 - - 18 10 NE 1019,5 35 0,0
17.09.2017 23:00:00 9,1 7,8 - - 9 5 N 1019,6 35 0,0
17.09.2017 22:00:00 10,0 9,0 - - 16 9 NNE 1019,3 35 0,0
17.09.2017 21:00:00 10,5 9,4 - - 15 8 NE 1019,1 30 0,4
17.09.2017 20:00:00 11,0 10,1 - - 9 5 NE 1018,6 14 0,6
17.09.2017 19:00:00 11,5 10,6 - - 9 5 NE 1017,8 23 1,2
17.09.2017 18:00:00 12,9 10,5 - - 13 7 NNE 1017,3 4,9 0,0
17.09.2017 17:00:00 13,1 10,4 - - 18 10 N 1017,0 50 0,2
17.09.2017 16:00:00 13,5 9,9 - - 22 12 N 1016,8 50 0,0
17.09.2017 15:00:00 14,3 10,4 - - 16 9 N 1016,7 50 0,0
17.09.2017 14:00:00 13,2 9,4 - - 18 10 N 1017,1 45 0,0
17.09.2017 13:00:00 12,8 8,9 - - 18 10 NNE 1017,2 50 0,0
17.09.2017 12:00:00 13,2 9,5 - - 16 9 N 1016,9 40 0,0
17.09.2017 11:00:00 12,1 9,8 - - 24 13 N 1017,0 35 0,0
17.09.2017 10:00:00 11,2 9,9 13,2 13,5 15 8 N 1017,1 45 0,0
17.09.2017 09:00:00 11,0 10,0 - - 11 6 N 1016,7 45 0,0
17.09.2017 08:00:00 9,5 9,1 - - 4 2 WNW 1016,6 40 0,0
17.09.2017 07:00:00 9,2 8,7 - - 4 2 N 1016,4 50 0,2
17.09.2017 06:00:00 8,5 7,8 - - 8 4 N 1015,8 35 0,0

tt = temperature
td = dewpoint
tt -20cm = temperature -20cm
tt -100cm = temperature -100cm
ff = wind speed
dd = wind direction
ppp = reduced air pressure
vv = visibility
rr = precipitation

Next stations